Farmington, NM

6:07 PM MDT on August 29, 2016 (GMT -0600)
Four Corners Regional

Weather History for KFMN - June, 2013

Change the Weather History Date:

Monday, June 17, 2013

  Actual Average Record
Temperature  
Mean Temperature 72 °F -  
Max Temperature 93 °F 86 °F 96 °F (2001)
Min Temperature 54 °F 50 °F 44 °F (1992)
Cooling Degree Days 8    
Growing Degree Days 22 (Base 50)    
Moisture  
Dew Point 26 °F    
Average Humidity 18    
Maximum Humidity 41    
Minimum Humidity 4    
Precipitation  
Precipitation 0.00 in - - ()
Sea Level Pressure  
Sea Level Pressure 29.89 in    
Wind  
Wind Speed 7 mph (ENE)    
Max Wind Speed 20 mph    
Max Gust Speed 25 mph    
Visibility 10 miles    
Events      
Averages and records for this station are not official NWS values.
T = Trace of Precipitation, MM = Missing Value Source: NWS Daily Summary

Daily Weather History Graph

Daily Weather History Graph

Search for Another Location

Airport or City:

Trip Planner

Search our weather history database for the weather conditions in past years. The results will help you decide how hot, cold, wet, or windy it might be!

Date:

Astronomy

Jun. 17, 2013 Rise Set
Actual Time 5:53 AM MDT 8:34 PM MDT
Civil Twilight 5:23 AM MDT 9:04 PM MDT
Nautical Twilight 4:44 AM MDT 9:43 PM MDT
Astronomical Twilight 4:01 AM MDT 10:26 PM MDT
Moon 2:23 PM MDT (6/17) 1:22 AM MDT (6/17)
Length of Visible Light 15h 41m
Length of Day
14h 40m
First Quarter, 61% of the Moon is Illuminated
Jun 17
First Quarter
Jun 23
Full
Jun 29
Last Quarter
Jul 8
New
Jul 15
First Quarter

Hourly Weather History & Observations

Time (MDT) Temp. Dew Point Humidity Pressure Visibility Wind Dir Wind Speed Gust Speed Precip Events Conditions
12:53 AM 68.0 °F 34.0 °F 28% 29.90 in 10.0 mi NE 5.8 mph - N/A   Clear
1:53 AM 66.0 °F 35.1 °F 32% 29.91 in 10.0 mi East 5.8 mph - N/A   Clear
2:53 AM 64.9 °F 37.0 °F 36% 29.89 in 10.0 mi East 9.2 mph - N/A   Clear
3:53 AM 62.1 °F 35.1 °F 37% 29.91 in 10.0 mi ENE 8.1 mph - N/A   Clear
4:53 AM 60.1 °F 34.0 °F 38% 29.93 in 10.0 mi ENE 6.9 mph - N/A   Clear
5:53 AM 55.0 °F 30.9 °F 40% 29.97 in 10.0 mi NE 5.8 mph - N/A   Clear
6:53 AM 59.0 °F 35.1 °F 41% 29.97 in 10.0 mi East 6.9 mph - N/A   Clear
7:53 AM 64.9 °F 35.1 °F 33% 29.96 in 10.0 mi East 4.6 mph - N/A   Clear
8:53 AM 68.0 °F 36.0 °F 31% 29.98 in 10.0 mi SE 5.8 mph - N/A   Clear
9:53 AM 75.0 °F 36.0 °F 24% 29.97 in 10.0 mi SE 6.9 mph - N/A   Partly Cloudy
10:53 AM 80.1 °F 30.9 °F 17% 29.96 in 10.0 mi Calm Calm - N/A   Clear
11:53 AM 84.9 °F 28.9 °F 13% 29.94 in 10.0 mi West 9.2 mph - N/A   Clear
12:53 PM 87.1 °F 25.0 °F 10% 29.92 in 10.0 mi Variable 3.5 mph - N/A   Clear
1:53 PM 89.1 °F 24.1 °F 9% 29.90 in 10.0 mi Variable 6.9 mph - N/A   Clear
2:53 PM 89.1 °F 24.1 °F 9% 29.87 in 10.0 mi SSE 4.6 mph - N/A   Clear
3:53 PM 93.0 °F 25.0 °F 9% 29.83 in 10.0 mi WSW 15.0 mph 20.7 mph N/A   Clear
4:53 PM 90.0 °F 23.0 °F 9% 29.83 in 10.0 mi WNW 8.1 mph - N/A   Clear
5:53 PM 91.0 °F 19.9 °F 7% 29.81 in 10.0 mi WSW 12.7 mph 21.9 mph N/A   Clear
6:53 PM 90.0 °F 12.9 °F 6% 29.80 in 10.0 mi West 15.0 mph 24.2 mph N/A   Clear
7:53 PM 87.1 °F 7.0 °F 5% 29.80 in 10.0 mi WNW 19.6 mph 25.3 mph N/A   Clear
8:53 PM 79.0 °F 10.0 °F 7% 29.82 in 10.0 mi West 3.5 mph - N/A   Clear
9:53 PM 75.9 °F 14.0 °F 10% 29.83 in 10.0 mi Calm Calm - N/A   Clear
10:53 PM 66.0 °F 10.9 °F 12% 29.86 in 10.0 mi Calm Calm - N/A   Clear
11:53 PM 66.9 °F 12.9 °F 12% 29.84 in 10.0 mi NNE 9.2 mph - N/A   Clear